OE-6072 Weather Reports


time (UTC)temp
C
wind
direction
speed
KPH
gust
KPH
rain 1hr
cm
rain 24hr
cm
rain mn
cm
humidity
%
barometer
mb
20260903071114 17 98 3.2 8.0 0.00 0.00 0.00 76 1023.9
20260903064113 16 40 3.2 8.0 0.00 0.00 0.00 78 1024.2
20260903061114 15 188 1.6 4.8 0.00 0.00 0.00 83 1024.6
20260903054113 15 226 1.6 3.2 0.00 0.00 0.00 84 1024.7
20260903051114 14 275 1.6 3.2 0.00 0.00 0.00 84 1024.8
20260903044113 14 227 1.6 3.2 0.00 0.00 0.00 81 1024.8
20260903041113 15 243 1.6 3.2 0.00 0.00 0.00 81 1024.7
20260903031114 15 253 1.6 3.2 0.00 0.00 0.00 81 1024.7
20260903021113 15 245 3.2 9.7 0.00 0.00 0.00 78 1024.4
20260903014113 16 239 3.2 8.0 0.00 0.00 0.00 78 1024.3
20260903011114 16 256 1.6 4.8 0.00 0.00 0.00 76 1024.3
20260903004114 16 257 1.6 3.2 0.00 0.00 0.00 78 1023.2
20260903001513 16 250 1.6 4.8 0.00 0.00 0.00 75 1024.2
20260902234114 16 260 1.6 3.2 0.00 0.00 0.00 76 1024.1
20260902224114 17 245 1.6 4.8 0.00 0.00 0.00 74 1022.9
20260902221114 17 226 1.6 8.0 0.00 0.00 0.00 73 1022.8
20260902214114 17 226 3.2 8.0 0.00 0.00 0.00 71 1022.7
20260902211114 18 248 1.6 3.2 0.00 0.00 0.00 68 1022.5
20260902204115 18 272 3.2 9.7 0.00 0.00 0.00 66 1022.4
20260902201114 18 243 3.2 6.4 0.00 0.00 0.00 67 1022.3
20260902194114 19 272 3.2 8.0 0.00 0.00 0.00 63 1022.2
20260902191114 20 194 4.8 14.5 0.00 0.00 0.00 60 1020.9
20260902184114 20 223 4.8 17.7 0.00 0.00 0.00 59 1020.7
20260902181114 21 207 3.2 12.9 0.00 0.00 0.00 53 1019.2
20260902174114 21 331 4.8 11.3 0.00 0.00 0.00 54 1019.3
20260902171114 22 307 4.8 9.7 0.00 0.00 0.00 53 1018.1
20260902164114 22 290 3.2 8.0 0.00 0.00 0.00 53 1018.1
20260902161114 23 272 3.2 9.7 0.00 0.00 0.00 51 1017.7
20260902154114 24 351 4.8 14.5 0.00 0.00 0.00 44 1017.3
20260902151114 25 352 4.8 12.9 0.00 0.00 0.00 41 1018.3
20260902144114 25 14 6.4 16.1 0.00 0.00 0.00 41 1018.1
20260902141114 25 24 4.8 24.1 0.00 0.00 0.00 43 1018.1
20260902134113 25 357 4.8 16.1 0.00 0.00 0.00 45 1018.2
20260902131114 24 9 4.8 14.5 0.00 0.00 0.00 48 1018.4
20260902124113 25 28 6.4 20.9 0.00 0.00 0.00 48 1018.4
20260902121114 23 31 6.4 14.5 0.00 0.00 0.00 50 1018.6
20260902114114 23 40 6.4 14.5 0.00 0.00 0.00 51 1019.8
20260902111114 22 94 3.2 9.7 0.00 0.00 0.00 58 1020.1
20260902104114 21 84 3.2 8.0 0.00 0.00 0.00 60 1020.5
20260902101114 20 80 4.8 9.7 0.00 0.00 0.00 64 1021.9
20260902094114 19 67 3.2 8.0 0.00 0.00 0.00 65 1022.2
20260902091113 18 39 4.8 9.7 0.00 0.00 0.00 72 1022.5
20260902084113 17 62 3.2 8.0 0.00 0.00 0.00 73 1022.7
20260902081113 17 133 3.2 8.0 0.00 0.00 0.00 75 1022.9
20260902074114 16 124 3.2 8.0 0.00 0.00 0.00 78 1024.3